Home > Weather > Sidney > Past weeks

Flag for USA Past Weather in Sidney, Montana, USA — Yesterday and Last 2 Weeks

Now
45 °F

Clear.


Feels Like: 45 °F
Forecast: 46 / 82 °F
Wind: No wind

Location: Sidney-Richland

Current Time: Aug 27, 2016 at 4:20:31 AM

Latest Report: Aug 27, 2016 at 3:56 AM


Visibility: 10 mi

Pressure: 29.93 "Hg (27.85 "Hg at 591m altitude)

Humidity: 93%

Dew Point: 43 °F

Location of SidneyLocation

Past Weather in Sidney — Graph

°F

Sidney Temperature Yesterday

Maximum temperature yesterday: 78 °F (at 1:56 PM)
Minimum temperature yesterday: 46 °F (at 1:56 AM)
Average temperature yesterday: 60 °F

High & Low Weather Summary for the Past Weeks

 TemperatureHumidityPressure
High97 °F (Aug 22, 2:56 PM)97% (Aug 20, 5:56 AM)30.23 "Hg (Aug 20, 5:56 AM)
Low46 °F (Aug 26, 1:56 AM)10% (Aug 22, 4:56 PM)29.54 "Hg (Aug 22, 2:56 PM)
Average67 °F57%29.97 "Hg
* Reported Aug 12 2:56 AM — Aug 27 2:56 AM, Sidney, Weather by CustomWeather, © 2016

Note: Actual official high and low records may vary slightly from our data, if they occured in-between our weather recording intervals... More about our weather records

Advertising

Sidney Weather History for the Previous 24 Hours

Scroll right to see more
 ConditionsComfort  
Time TempWeatherWind HumidityBarometerVisibility
2:56 AM
Sat, Aug 27
46 °FClear.5 mph86%29.94 "Hg10 mi
1:56 AM50 °FClear.No wind83%29.94 "Hg10 mi
12:56 AM58 °FClear.8 mph60%29.94 "Hg10 mi
11:56 PM
Fri, Aug 26
54 °FClear.9 mph74%29.95 "Hg10 mi
10:56 PM53 °FClear.3 mph72%29.96 "Hg10 mi
9:56 PM55 °FClear.No wind67%29.96 "Hg10 mi
8:56 PM59 °FClear.5 mph60%29.97 "Hg10 mi
7:56 PM62 °FScattered clouds.15 mph58%29.94 "Hg10 mi
5:56 PM71 °FScattered clouds.18 mph41%29.94 "Hg10 mi
4:56 PM77 °FPassing clouds.10 mph29%29.93 "Hg10 mi
3:56 PM75 °FSunny.8 mph31%29.94 "Hg10 mi
2:56 PM75 °FPartly sunny.6 mph32%29.96 "Hg10 mi
1:56 PM78 °FPartly sunny.12 mph31%29.97 "Hg9 mi
12:56 PM73 °FBroken clouds.8 mph40%29.99 "Hg10 mi
11:56 AM74 °FHaze.5 mph33%30.01 "Hg6 mi
10:56 AM69 °FSunny.7 mph47%30.04 "Hg9 mi
9:56 AM66 °FScattered clouds.8 mph47%30.06 "Hg8 mi
8:56 AM57 °FSunny.7 mph64%30.07 "Hg10 mi
7:56 AM52 °FSunny.6 mph77%30.08 "Hg7 mi
6:56 AM49 °FClear.6 mph84%30.08 "Hg10 mi
5:56 AM47 °FClear.7 mph86%30.08 "Hg10 mi
4:56 AM47 °FClear.3 mph80%30.09 "Hg10 mi
Weather by CustomWeather, © 2016

See weather overviewHow to use our weather pages